Location: Palmerston North
(40.3500°S, 175.6170°E)
Time: 16:05:23
(UTC+13:00)

ISS - Pass Details

Date: 25 October 2019
Orbit: 412 x 421 km, 51.6° (Epoch: 22 November)

Event Time Altitude Azimuth Distance (km) Brightness Sun altitude
Rises 20:49:37 0° 259° (W) 2,372 1.7 -11.7°
Reaches altitude 10° 20:52:18 10° 236° (SW) 1,513 0.6 -12.2°
Maximum altitude 20:54:32 16° 195° (SSW) 1,191 -0.9 -12.6°
Drops below altitude 10° 20:56:47 10° 154° (SSE) 1,521 -0.9 -12.9°
Enters shadow 20:59:45 -1° 130° (SE) 2,488 0.0 -13.4°
